Wind_Speed
6 7 8 8 9 10 11 12 13 14 15 16 16 17 18 18 19 19 19 20 20 19 19 19 19 19 20 21 21 21 22 23 24 25 26 27 27 28 29 29 30 30 31 31
5 7 8 8 9 11 11 12 14 15 16 16 17 18 18 18 18 18 19 19 18 18 17 17 18 18 19 19 19 20 21 22 23 23 24 25 26 26 27 27 27 28 28 28
6 7 8 9 10 10 11 12 13 15 16 17 18 17 17 18 17 17 17 17 17 17 17 18 17 17 17 18 20 20 20 21 22 22 22 23 23 24 24 25 25 26 26 27
6 7 8 9 10 10 11 12 14 15 16 17 18 18 18 17 17 17 17 16 16 17 17 17 17 17 17 17 17 18 18 19 19 20 20 21 22 23 23 23 24 24 24 24
6 7 8 9 11 12 12 13 14 15 17 17 18 18 18 17 17 16 17 16 15 16 17 17 16 16 16 16 16 17 17 17 17 18 18 19 20 21 21 21 21 21 22 22
6 8 9 10 12 13 14 14 15 16 17 18 18 17 17 16 16 15 15 14 14 14 15 15 15 16 16 15 15 15 16 16 17 17 17 18 18 19 19 19 19 19 20 19
7 9 10 12 13 15 15 15 16 17 18 18 18 17 16 15 15 14 14 13 13 13 13 13 13 14 14 14 14 14 15 15 15 15 16 17 17 18 17 17 17 18 18 18
8 9 11 12 14 16 16 17 17 18 18 18 18 17 15 14 13 13 13 12 12 12 11 12 12 12 12 12 12 12 13 13 14 14 15 15 15 15 16 16 16 16 16 16
8 9 11 13 15 16 17 18 18 18 18 18 18 17 15 13 12 12 11 11 11 11 11 11 10 10 10 10 10 11 11 11 12 13 13 14 14 14 14 14 14 13 13 13
7 9 11 13 15 16 17 18 18 18 18 18 18 17 15 13 11 11 10 10 10 10 10 9 8 8 9 9 9 9 10 10 11 11 12 12 12 12 12 12 12 12 12 12
7 9 11 13 15 16 17 18 18 18 18 18 18 17 15 13 11 9 9 8 8 7 6 6 6 7 7 7 8 8 9 9 10 10 10 11 11 11 11 11 11 10 10 10
7 9 11 13 15 16 17 18 18 17 18 18 17 16 15 13 11 10 9 8 7 6 5 5 5 5 6 6 6 7 7 8 8 9 9 10 10 10 10 10 9 9 8 8
6 8 10 13 15 16 17 18 18 18 18 18 17 16 15 13 12 11 10 9 8 7 6 5 5 5 5 5 5 6 6 7 8 8 9 9 9 9 9 9 8 8 8 8
5 8 10 13 14 16 17 18 17 18 18 18 17 16 15 14 13 11 10 10 9 8 7 5 5 5 5 5 5 6 6 7 7 8 8 8 8 8 8 8 7 7 7 8
5 7 9 12 14 15 16 17 18 18 18 18 17 16 15 14 13 12 11 11 10 9 8 7 6 5 5 5 6 6 7 7 7 8 8 8 8 8 7 7 7 7 7 8
4 7 9 11 12 14 16 17 18 18 18 18 18 17 16 15 14 13 12 11 11 11 10 9 8 7 6 6 6 6 7 7 7 8 8 8 8 8 8 8 8 8 8 8
4 5 7 9 11 13 15 16 17 17 18 18 18 18 17 16 15 14 13 13 12 12 11 10 9 8 8 7 7 7 8 8 8 8 9 9 9 9 9 9 9 9 9 9
3 4 6 8 10 12 14 15 16 17 17 18 18 18 18 17 16 16 14 14 13 13 12 11 11 10 9 9 8 8 9 9 9 10 10 10 10 10 10 10 9 9 9 10
2 4 6 7 9 11 12 14 15 16 17 17 18 18 18 18 17 17 16 15 15 15 14 13 13 12 11 10 10 10 9 10 10 10 10 11 11 11 11 11 11 10 11 11
1 3 5 6 8 10 11 13 14 15 16 16 17 18 18 19 18 18 17 17 17 17 16 15 15 14 13 13 12 12 11 11 11 11 11 12 12 12 11 11 11 11 11 12
0 2 4 5 7 8 10 11 13 14 15 16 17 17 18 19 19 18 18 18 18 18 17 16 16 16 15 15 14 14 14 13 13 13 12 12 12 12 12 12 12 12 12 13
1 1 2 4 5 7 8 10 11 13 14 15 15 16 17 18 18 18 18 18 18 18 18 18 17 17 17 16 16 15 15 14 14 13 13 13 13 12 12 12 12 13 13 13
3 1 1 2 4 5 7 8 9 11 12 13 14 15 16 17 17 17 17 18 18 18 18 18 18 18 17 17 16 15 15 14 14 14 13 13 13 13 13 12 12 13 13 13
4 2 1 1 2 3 5 6 8 9 10 12 13 14 15 15 15 16 16 16 17 17 18 18 18 18 18 17 16 16 15 15 14 14 14 13 13 13 13 12 12 12 13 13
6 4 2 1 1 2 3 4 6 7 8 10 11 12 13 13 14 14 15 15 16 16 17 17 17 17 17 17 16 15 15 15 15 14 14 13 13 13 12 12 12 12 12 12
7 5 4 2 1 1 2 3 4 5 6 7 9 10 11 11 12 13 13 14 14 15 15 16 16 16 16 16 16 15 15 15 14 14 14 13 13 13 12 12 12 12 12 11
9 7 6 4 3 2 2 2 3 4 5 6 7 7 8 9 10 11 11 12 13 13 14 14 14 14 14 14 14 14 14 14 14 14 14 13 13 13 12 12 12 12 11 11
Wind_Direction
299 302 306 307 303 301 301 300 301 303 302 300 300 299 296 296 298 296 292 289 288 288 283 275 273 271 266 264 266 270 271 270 270 271 272 272 274 275 276 277 279 280 280 280
306 310 313 315 316 313 309 307 307 309 308 306 304 304 302 299 296 293 291 287 285 285 282 274 270 269 267 266 269 272 272 271 272 272 274 274 276 277 278 279 280 282 282 281
315 316 319 326 326 320 317 313 312 314 314 312 308 307 305 300 296 293 290 289 287 283 281 279 278 275 274 275 274 273 274 273 273 274 275 276 277 279 279 280 281 282 283 284
320 322 327 334 333 330 326 321 320 319 318 316 313 309 307 303 298 297 294 291 289 285 279 279 281 277 273 274 273 274 276 276 276 277 278 279 281 283 284 283 282 283 285 287
329 332 332 337 338 336 332 327 325 324 322 321 318 314 310 306 302 299 294 291 288 285 281 278 279 279 276 274 275 277 278 279 280 281 283 285 285 285 285 285 286 287 288 289
333 335 338 342 340 339 337 335 334 331 330 327 324 318 315 310 305 300 294 292 287 284 282 280 277 277 276 274 276 277 280 281 280 281 283 287 289 289 288 289 290 291 291 291
333 336 340 342 343 342 341 340 338 335 334 332 328 323 319 313 308 301 296 292 287 285 283 279 276 275 275 276 277 277 280 282 282 285 287 291 293 292 291 292 293 293 292 293
331 337 341 343 344 344 345 343 341 339 338 336 333 330 325 318 313 307 301 295 290 288 285 280 279 277 276 278 280 281 283 285 287 290 292 295 296 297 297 296 296 295 296 297
335 341 344 346 346 347 347 346 345 343 341 340 339 336 331 326 320 314 308 302 297 293 288 281 278 278 278 279 282 283 285 288 292 296 298 299 300 301 302 301 300 301 301 303
337 343 346 347 347 348 349 349 348 347 346 346 345 344 341 337 330 323 317 311 305 299 292 283 279 280 280 282 287 290 291 296 300 304 305 305 306 306 307 307 307 307 308 310
339 346 349 350 351 352 352 351 351 352 353 353 352 352 351 349 345 341 335 328 321 313 302 290 284 285 287 290 293 295 299 305 308 311 313 314 315 316 317 317 318 318 317 318
343 349 353 354 355 355 354 355 355 356 357 358 357 358 359 360 359 357 354 350 344 336 324 310 305 305 303 301 302 306 310 316 320 323 325 327 328 329 330 330 331 332 332 332
343 351 354 356 357 358 358 359 0 1 1 2 2 2 3 4 6 7 8 8 4 359 352 337 323 320 319 317 317 318 319 323 327 330 333 335 336 338 340 342 343 343 342 343
343 351 356 360 1 3 4 6 6 7 7 8 8 8 9 9 10 11 13 14 14 11 8 1 349 339 332 328 330 332 333 335 336 338 340 343 345 346 346 347 350 351 350 349
347 354 359 3 6 8 10 12 14 14 14 14 15 16 16 17 18 19 20 20 20 19 18 16 10 2 356 351 349 349 351 354 355 358 359 360 359 357 356 358 359 0 360 359
347 356 2 6 9 13 15 17 19 20 20 20 21 22 24 25 25 24 25 25 27 29 29 29 27 24 20 15 14 14 15 14 12 11 10 10 11 11 11 11 11 10 9 8
343 357 6 10 14 18 19 19 21 23 24 26 27 27 27 28 29 30 31 33 34 36 36 36 36 35 33 31 31 32 30 26 25 23 21 22 21 20 19 19 17 17 19 19
344 4 11 15 19 21 22 23 24 26 27 29 31 31 32 33 34 35 37 38 38 38 37 37 39 40 40 40 40 38 36 36 35 34 33 33 30 26 25 25 26 28 29 28
350 9 14 18 21 24 24 25 27 28 29 32 33 34 35 37 38 40 42 42 41 40 40 41 42 44 45 45 45 44 43 43 42 41 40 38 36 33 34 35 36 36 36 35
344 10 16 21 25 26 27 29 31 31 32 33 34 36 38 39 41 43 44 45 45 44 43 43 45 47 48 49 49 50 51 50 49 47 44 41 38 39 40 41 41 41 41 41
290 9 17 23 27 27 30 32 34 35 36 36 37 38 40 42 44 45 46 46 46 45 45 46 48 50 51 53 54 54 54 53 51 49 46 42 41 42 44 44 45 46 45 45
226 346 12 22 27 29 31 34 36 37 38 38 39 40 42 44 44 45 45 45 45 46 47 48 50 52 52 53 54 54 53 52 50 48 46 44 44 44 45 46 47 47 47 46
217 242 4 22 28 30 32 34 36 37 37 37 38 40 42 43 43 43 44 45 46 47 48 49 50 50 50 51 51 52 51 49 48 47 45 44 44 44 45 46 46 46 46 45
214 218 233 16 30 32 33 32 33 35 36 36 38 39 40 41 41 42 44 45 45 46 47 48 49 48 48 48 48 48 47 46 46 45 44 44 44 45 46 45 44 45 44 44
216 220 222 232 17 27 27 28 29 30 31 33 35 35 37 39 41 42 43 43 44 43 43 44 45 46 45 45 44 44 44 43 43 42 41 40 40 40 41 41 41 41 41 41
215 217 220 226 245 334 360 10 16 19 21 25 29 30 32 34 37 39 40 40 40 40 40 40 41 42 41 41 41 41 41 40 39 39 39 38 37 37 36 36 37 38 38 38
216 218 221 225 236 267 300 326 347 358 5 11 16 20 23 26 30 32 33 34 34 34 34 34 35 35 35 35 35 36 36 36 36 35 35 35 34 34 34 34 35 35 35 34
Height
5761 5760 5759 5758 5757 5756 5754 5753 5752 5751 5749 5748 5746 5744 5742 5741 5739 5737 5736 5734 5733 5732 5730 5729 5729 5728 5728 5728 5728 5728 5728 5728 5728 5728 5728 5728 5727 5727 5727 5726 5725 5724 5723 5722
5759 5758 5757 5756 5755 5753 5752 5750 5749 5747 5746 5743 5741 5739 5737 5735 5734 5732 5730 5728 5727 5725 5724 5723 5723 5722 5722 5722 5722 5722 5722 5722 5721 5721 5721 5721 5720 5719 5719 5718 5717 5716 5715 5714
5758 5757 5756 5755 5753 5751 5749 5748 5746 5744 5743 5739 5736 5734 5732 5730 5728 5726 5724 5723 5721 5720 5719 5718 5717 5716 5716 5716 5716 5716 5716 5716 5715 5715 5714 5714 5713 5713 5712 5711 5710 5709 5707 5706
5757 5757 5755 5756 5751 5749 5747 5745 5743 5741 5738 5735 5732 5730 5727 5725 5722 5720 5719 5717 5716 5714 5713 5713 5712 5711 5711 5710 5710 5710 5710 5709 5709 5709 5708 5707 5707 5706 5705 5704 5703 5701 5700 5699
5756 5755 5754 5752 5749 5747 5745 5743 5740 5737 5734 5731 5727 5725 5722 5719 5717 5715 5713 5712 5710 5709 5708 5707 5706 5706 5705 5705 5705 5704 5704 5703 5703 5702 5702 5701 5700 5699 5698 5697 5696 5694 5693 5692
5755 5753 5752 5751 5748 5745 5743 5740 5737 5733 5730 5726 5723 5721 5718 5715 5712 5710 5708 5707 5706 5704 5703 5702 5701 5701 5700 5700 5700 5699 5699 5699 5698 5697 5696 5695 5694 5693 5692 5691 5689 5688 5687 5686
5754 5752 5750 5749 5745 5743 5741 5739 5734 5730 5726 5723 5720 5717 5714 5710 5708 5706 5704 5702 5701 5700 5698 5698 5697 5697 5696 5696 5695 5695 5695 5694 5693 5693 5692 5691 5690 5688 5687 5686 5684 5683 5682 5681
5753 5751 5751 5747 5744 5741 5739 5734 5730 5727 5723 5720 5716 5712 5709 5706 5704 5702 5700 5698 5697 5696 5694 5694 5693 5693 5692 5692 5691 5691 5691 5690 5689 5689 5688 5687 5685 5684 5683 5681 5680 5679 5677 5676
5752 5752 5748 5745 5742 5739 5736 5732 5728 5724 5721 5717 5713 5709 5706 5703 5700 5698 5696 5695 5693 5692 5691 5690 5690 5689 5689 5689 5688 5688 5687 5687 5686 5685 5684 5683 5682 5680 5679 5677 5676 5674 5673 5672
5750 5748 5746 5744 5741 5737 5734 5730 5726 5723 5719 5715 5711 5707 5703 5700 5698 5696 5694 5692 5690 5689 5688 5688 5687 5687 5686 5686 5685 5685 5684 5684 5683 5682 5681 5680 5678 5677 5675 5674 5672 5671 5670 5668
5749 5747 5745 5743 5740 5736 5733 5729 5725 5721 5717 5713 5709 5705 5702 5699 5696 5694 5692 5690 5688 5687 5686 5686 5685 5685 5684 5684 5683 5682 5682 5681 5680 5679 5678 5677 5676 5674 5673 5671 5670 5668 5667 5666
5749 5747 5745 5742 5739 5735 5732 5728 5724 5720 5716 5712 5708 5705 5701 5698 5695 5693 5691 5689 5687 5686 5685 5684 5684 5683 5682 5682 5681 5681 5680 5680 5679 5678 5676 5675 5674 5672 5670 5669 5668 5666 5665 5664
5748 5746 5744 5741 5738 5735 5731 5727 5723 5719 5716 5712 5708 5704 5701 5698 5695 5693 5691 5689 5687 5685 5684 5683 5683 5682 5681 5681 5680 5680 5679 5678 5677 5676 5675 5673 5672 5671 5669 5668 5666 5665 5664 5662
5747 5745 5743 5741 5738 5735 5731 5727 5723 5720 5716 5712 5708 5705 5702 5699 5696 5693 5691 5689 5687 5685 5684 5683 5682 5681 5681 5680 5679 5679 5678 5677 5676 5675 5674 5672 5671 5670 5668 5667 5666 5664 5663 5662
5746 5745 5743 5741 5738 5735 5731 5728 5724 5720 5717 5713 5709 5706 5703 5700 5697 5694 5692 5690 5688 5686 5684 5683 5682 5681 5680 5679 5679 5678 5677 5676 5675 5674 5673 5672 5671 5669 5668 5667 5665 5664 5663 5661
5746 5744 5743 5741 5738 5735 5732 5729 5725 5722 5718 5714 5711 5707 5704 5701 5698 5696 5693 5691 5689 5687 5685 5684 5682 5681 5680 5679 5679 5678 5677 5676 5675 5674 5673 5672 5671 5669 5668 5667 5665 5664 5662 5661
5745 5744 5743 5741 5739 5736 5733 5730 5727 5723 5720 5716 5713 5710 5706 5703 5700 5698 5695 5693 5691 5689 5687 5685 5684 5682 5681 5680 5680 5679 5678 5677 5676 5675 5674 5672 5671 5670 5668 5667 5665 5664 5663 5661
5745 5744 5743 5741 5739 5737 5734 5731 5728 5725 5722 5719 5715 5712 5709 5706 5703 5700 5698 5695 5693 5691 5689 5687 5685 5684 5683 5682 5681 5680 5679 5678 5677 5676 5675 5673 5672 5671 5669 5668 5666 5665 5664 5662
5744 5743 5742 5741 5739 5737 5735 5733 5730 5727 5724 5721 5718 5715 5712 5709 5706 5703 5701 5698 5696 5694 5692 5689 5688 5686 5685 5683 5682 5681 5680 5679 5678 5677 5676 5675 5674 5672 5671 5669 5668 5667 5665 5664
5743 5743 5742 5741 5740 5738 5736 5734 5732 5729 5727 5724 5721 5718 5715 5712 5709 5706 5704 5702 5699 5697 5694 5692 5690 5689 5687 5686 5684 5683 5682 5681 5680 5679 5678 5677 5676 5674 5673 5672 5670 5669 5667 5666
5743 5742 5742 5741 5740 5739 5738 5736 5734 5731 5729 5726 5724 5721 5718 5715 5713 5710 5708 5705 5703 5700 5698 5696 5694 5692 5690 5689 5688 5686 5685 5684 5683 5682 5681 5680 5678 5677 5676 5674 5673 5671 5670 5668
5742 5742 5742 5741 5741 5740 5738 5737 5735 5733 5731 5729 5727 5724 5722 5719 5716 5714 5712 5709 5707 5704 5702 5700 5698 5696 5694 5692 5691 5690 5689 5687 5686 5685 5684 5683 5681 5680 5678 5677 5675 5674 5672 5671
5741 5741 5741 5741 5741 5740 5739 5738 5736 5735 5733 5731 5729 5727 5725 5722 5720 5718 5716 5713 5711 5708 5706 5704 5702 5700 5698 5696 5695 5694 5692 5691 5690 5688 5687 5686 5684 5683 5681 5680 5678 5677 5675 5674
5740 5740 5741 5741 5740 5740 5739 5739 5738 5736 5735 5733 5731 5729 5727 5725 5723 5721 5719 5717 5714 5712 5710 5708 5706 5704 5702 5700 5699 5697 5696 5694 5693 5691 5690 5689 5687 5686 5684 5683 5681 5679 5678 5676
5739 5739 5740 5740 5740 5740 5739 5739 5738 5737 5736 5735 5733 5731 5729 5728 5726 5724 5722 5720 5718 5716 5714 5712 5710 5708 5706 5704 5703 5701 5699 5698 5696 5695 5693 5691 5690 5688 5687 5685 5684 5682 5680 5679
5737 5738 5739 5739 5739 5739 5739 5739 5738 5738 5737 5736 5734 5733 5731 5730 5728 5726 5725 5723 5721 5719 5717 5715 5713 5711 5710 5708 5706 5704 5703 5701 5699 5697 5696 5694 5693 5691 5689 5688 5686 5684 5683 5681
5735 5736 5737 5738 5738 5738 5738 5738 5738 5738 5737 5736 5735 5734 5733 5731 5730 5728 5727 5725 5724 5722 5720 5718 5716 5714 5713 5711 5709 5707 5706 5704 5702 5700 5698 5697 5695 5693 5692 5690 5688 5686 5685 5683